User: anonymous   Login
Location: Vancouver
(49.2500°N, 123.1330°W)
Time: 16:26:34
(UTC-07:00)
Language:

Transit 2A Rocket - Orbit

View from above orbital plane
View from above orbital plane
View from above satellite
View from above satellite

Ground track
Ground track

The orbit data is extracted from the following two-line orbital elements,

1 00047U 60007C   17229.05930424 -.00000056  00000-0  12795-4 0  9992
2 00047  66.6658  43.2102 0230668 338.8978  20.2723 14.41929917985840
Epoch (UTC): 17 August 2017 01:25:23
Eccentricity: 0.0230668
inclination: 66.6658°
perigee height: 587 km
apogee height: 916 km
right ascension of ascending node: 43.2102°
argument of perigee: 338.8978°
revolutions per day: 14.41929917
mean anomaly at epoch: 20.2723°
orbit number at epoch: 98584

The dashed part of the orbit path shows where the satellite is in the earth's shadow,  

DLR